TimeCST,TemperatureF,Dew PointF,Humidity,Sea Level PressureIn,VisibilityMPH,Wind Direction,Wind SpeedMPH,Gust SpeedMPH,PrecipitationIn,Events,Conditions,WindDirDegrees,DateUTC
12:53 AM,42.1,28.0,58,29.59,10.0,North,20.7,-,N/A,,Clear,360,2013-02-18 06:53:00
1:53 AM,41.0,30.9,67,29.57,10.0,North,20.7,29.9,N/A,,Clear,10,2013-02-18 07:53:00
2:53 AM,39.9,30.9,70,29.60,10.0,North,17.3,-,N/A,,Clear,360,2013-02-18 08:53:00
3:53 AM,39.0,30.0,70,29.62,10.0,North,18.4,-,N/A,,Clear,360,2013-02-18 09:53:00
4:53 AM,37.9,28.9,70,29.64,10.0,North,20.7,27.6,N/A,,Clear,360,2013-02-18 10:53:00
6:53 AM,37.0,27.0,67,29.70,10.0,North,25.3,31.1,N/A,,Overcast,350,2013-02-18 12:53:00
7:53 AM,37.4,26.6,65,29.73,10.0,NNW,24.2,36.8,N/A,,Overcast,340,2013-02-18 13:53:00
8:53 AM,37.0,25.0,62,29.78,10.0,North,23.0,41.4,N/A,,Partly Cloudy,350,2013-02-18 14:53:00
9:33 AM,35.6,24.8,65,29.78,10.0,NNW,28.8,39.1,N/A,,Mostly Cloudy,340,2013-02-18 15:33:00
9:53 AM,36.0,23.0,59,29.83,10.0,NNW,35.7,44.9,N/A,,Mostly Cloudy,340,2013-02-18 15:53:00
10:53 AM,35.1,21.9,59,29.88,10.0,NNW,29.9,40.3,N/A,,Overcast,340,2013-02-18 16:53:00
11:48 AM,33.8,21.2,60,29.88,10.0,NNW,26.5,39.1,N/A,,Overcast,340,2013-02-18 17:48:00
11:53 AM,33.1,21.0,61,29.93,10.0,NNW,26.5,34.5,N/A,,Overcast,330,2013-02-18 17:53:00
12:53 PM,34.0,19.9,56,29.94,10.0,NNW,24.2,31.1,N/A,,Overcast,330,2013-02-18 18:53:00
1:07 PM,35.6,19.4,52,29.90,10.0,North,24.2,34.5,N/A,,Overcast,350,2013-02-18 19:07:00
1:53 PM,36.0,18.0,48,29.94,10.0,NNW,25.3,33.4,N/A,,Scattered Clouds,340,2013-02-18 19:53:00
2:53 PM,37.0,18.0,46,29.95,10.0,NNW,20.7,31.1,N/A,,Scattered Clouds,340,2013-02-18 20:53:00
3:53 PM,36.0,16.0,44,29.98,10.0,NNW,25.3,34.5,N/A,,Partly Cloudy,340,2013-02-18 21:53:00
4:53 PM,35.1,15.1,44,30.01,10.0,NNW,25.3,35.7,N/A,,Clear,340,2013-02-18 22:53:00
5:53 PM,32.0,16.0,52,30.03,10.0,NNW,15.0,-,N/A,,Clear,340,2013-02-18 23:53:00
6:53 PM,30.0,15.1,54,30.06,10.0,NNW,10.4,-,N/A,,Clear,340,2013-02-19 00:53:00
7:53 PM,26.1,15.1,63,30.08,10.0,NW,8.1,-,N/A,,Clear,320,2013-02-19 01:53:00
8:53 PM,26.1,16.0,66,30.09,10.0,WNW,6.9,-,N/A,,Overcast,290,2013-02-19 02:53:00
9:53 PM,23.0,16.0,74,30.12,10.0,West,8.1,-,N/A,,Clear,280,2013-02-19 03:53:00
10:53 PM,25.0,16.0,69,30.15,10.0,NW,9.2,-,N/A,,Clear,320,2013-02-19 04:53:00
11:53 PM,24.1,17.1,75,30.18,10.0,NNW,10.4,-,N/A,,Clear,330,2013-02-19 05:53:00